This demonstration page uses our WeatherBlox Daily Observations layout. Learn more.

Hourly Observations for June 11, 2015

Temp ( °F °C ) Dew Point ( °F °C ) Humidity (%) Winds ( mph kmh ) Pressure ( in mb ) Visibility ( mi km ) Precip ( " mm )
12:15 am 00:15 Cloudy with Light Rain 64 18 63 17 94 94 NE 9 15 29.71 1006 10 16.09344 0 0
12:35 am 00:35 Cloudy with Light Rain 64 18 63 17 94 94 ENE 15 24 29.68 1005 7 11.265408 0.04 1.016
12:55 am 00:55 Mostly Cloudy 64 18 63 17 94 94 E 17 28 29.65 1004 10 16.09344 0.05 1.27
1:15 am 01:15 Cloudy 64 18 63 17 94 94 ESE 8 13 29.65 1004 10 16.09344 0.01 0.254
1:35 am 01:35 Cloudy 64 18 64 18 100 100 E 18 30 29.62 1003 7 11.265408 0.03 0.762
1:55 am 01:55 Cloudy 64 18 64 18 100 100 E 21 33 29.62 1003 10 16.09344 0.03 0.762
2:15 am 02:15 Cloudy 64 18 64 18 100 100 E 18 30 29.62 1003 10 16.09344 0 0
2:35 am 02:35 Cloudy 66 19 64 18 94 94 E 15 24 29.62 1003 10 16.09344 0 0
2:55 am 02:55 Cloudy 66 19 64 18 94 94 ESE 17 28 29.62 1003 10 16.09344 0 0
3:15 am 03:15 Cloudy 66 19 64 18 94 94 ESE 15 24 29.62 1003 10 16.09344 0 0
3:35 am 03:35 Cloudy 66 19 64 18 94 94 ESE 14 22 29.62 1003 10 16.09344 0 0
3:55 am 03:55 Cloudy 66 19 64 18 94 94 ESE 9 15 29.62 1003 10 16.09344 0 0
4:15 am 04:15 Cloudy 66 19 64 18 94 94 SE 10 17 29.62 1003 10 16.09344 0 0
4:35 am 04:35 Mostly Cloudy 66 19 64 18 94 94 ESE 6 9 29.62 1003 10 16.09344 0 0
4:55 am 04:55 Mostly Cloudy 66 19 64 18 94 94 E 6 9 29.62 1003 10 16.09344 0 0
5:15 am 05:15 Partly Cloudy 66 19 64 18 94 94 ENE 3 6 29.62 1003 7 11.265408 0 0
5:35 am 05:35 Partly Cloudy 66 19 64 18 94 94 E 5 7 29.62 1003 7 11.265408 0 0
5:55 am 05:55 Mostly Cloudy 66 19 64 18 94 94 ESE 5 7 29.62 1003 10 16.09344 0 0
6:15 am 06:15 Cloudy 66 19 64 18 94 94 ESE 6 9 29.62 1003 10 16.09344 0 0
6:35 am 06:35 Cloudy 66 19 66 19 100 100 ESE 6 9 29.62 1003 7 11.265408 0 0
6:55 am 06:55 Cloudy 68 20 66 19 94 94 SE 8 13 29.62 1003 7 11.265408 0 0
7:15 am 07:15 Mostly Cloudy 68 20 66 19 94 94 S 6 9 29.62 1003 10 16.09344 0 0
7:35 am 07:35 Cloudy 68 20 66 19 94 94 SSW 6 9 29.62 1003 10 16.09344 0 0
7:55 am 07:55 Cloudy 68 20 66 19 94 94 Calm 29.62 1003 10 16.09344 0 0
8:15 am 08:15 Cloudy 68 20 66 19 94 94 Calm 29.62 1003 10 16.09344 0 0
8:35 am 08:35 Cloudy 68 20 66 19 94 94 Calm 29.62 1003 10 16.09344 0 0
8:55 am 08:55 Cloudy 68 20 66 19 94 94 NW 5 7 29.65 1004 10 16.09344 0 0
9:15 am 09:15 Cloudy 68 20 66 19 94 94 NNW 5 7 29.65 1004 10 16.09344 0 0
9:35 am 09:35 Cloudy with Drizzle 68 20 64 18 88 88 N 9 15 29.65 1004 3 4.828032 0 0
9:55 am 09:55 Cloudy 68 20 66 19 94 94 N 10 17 29.65 1004 10 16.09344 0 0
10:15 am 10:15 Cloudy 68 20 66 19 94 94 N 10 17 29.65 1004 10 16.09344 0 0
10:35 am 10:35 Cloudy with Mist and Fog 68 20 64 18 88 88 N 9 15 29.65 1004 3 4.828032 0 0
10:55 am 10:55 Cloudy with Mist and Fog 66 19 64 18 94 94 NNW 13 20 29.68 1005 2 3.218688 0 0
11:15 am 11:15 Cloudy with Mist and Fog 66 19 64 18 94 94 NNW 12 19 29.68 1005 5 8.04672 0 0
11:35 am 11:35 Cloudy 68 20 64 18 88 88 NNW 14 22 29.68 1005 10 16.09344 0 0
11:55 am 11:55 Cloudy 70 21 64 18 83 83 N 15 24 29.65 1004 10 16.09344 0 0
12:15 pm 12:15 Cloudy 70 21 64 18 83 83 NNW 12 19 29.65 1004 10 16.09344 0 0
12:35 pm 12:35 Cloudy 72 22 64 18 78 78 N 14 22 29.65 1004 10 16.09344 0 0
12:55 pm 12:55 Cloudy 72 22 64 18 78 78 N 15 24 29.68 1005 10 16.09344 0 0
1:15 pm 13:15 Cloudy 72 22 64 18 78 78 NNW 14 22 29.68 1005 10 16.09344 0 0
1:35 pm 13:35 Cloudy 72 22 64 18 78 78 N 13 20 29.68 1005 10 16.09344 0 0
1:55 pm 13:55 Cloudy 72 22 64 18 78 78 N 12 19 29.68 1005 10 16.09344 0 0
2:15 pm 14:15 Cloudy 72 22 64 18 78 78 N 14 22 29.68 1005 10 16.09344 0 0
2:35 pm 14:35 Cloudy 70 21 64 18 83 83 N 13 20 29.68 1005 10 16.09344 0 0
2:55 pm 14:55 Cloudy 70 21 64 18 83 83 N 15 24 29.68 1005 10 16.09344 0 0
3:15 pm 15:15 Cloudy 70 21 64 18 83 83 N 15 24 29.68 1005 10 16.09344 0 0
3:35 pm 15:35 Cloudy 68 20 63 17 83 83 N 16 26 29.71 1006 10 16.09344 0 0
3:55 pm 15:55 Cloudy 68 20 63 17 83 83 N 15 24 29.71 1006 10 16.09344 0 0
4:15 pm 16:15 Cloudy 68 20 61 16 78 78 N 13 20 29.71 1006 10 16.09344 0 0
4:35 pm 16:35 Cloudy 66 19 61 16 83 83 N 15 24 29.71 1006 10 16.09344 0 0
4:55 pm 16:55 Cloudy with Mist and Fog 64 18 61 16 88 88 N 17 28 29.71 1006 5 8.04672 0 0
5:15 pm 17:15 Cloudy 64 18 61 16 88 88 N 15 24 29.74 1007 10 16.09344 0 0
5:35 pm 17:35 Cloudy 66 19 61 16 83 83 N 15 24 29.74 1007 10 16.09344 0 0
5:55 pm 17:55 Cloudy 64 18 61 16 88 88 N 14 22 29.74 1007 10 16.09344 0 0
6:15 pm 18:15 Cloudy 64 18 59 15 83 83 NNE 15 24 29.74 1007 10 16.09344 0 0
6:35 pm 18:35 Cloudy 63 17 59 15 88 88 N 14 22 29.77 1008 7 11.265408 0 0
6:55 pm 18:55 Cloudy 63 17 59 15 88 88 NNE 13 20 29.77 1008 10 16.09344 0 0
7:15 pm 19:15 Cloudy 64 18 59 15 83 83 N 14 22 29.77 1008 10 16.09344 0 0
7:35 pm 19:35 Cloudy 64 18 59 15 83 83 NNE 12 19 29.77 1008 10 16.09344 0 0
7:55 pm 19:55 Cloudy 64 18 59 15 83 83 NNE 12 19 29.77 1008 10 16.09344 0 0
8:15 pm 20:15 Cloudy 64 18 59 15 83 83 N 15 24 29.77 1008 10 16.09344 0 0
8:35 pm 20:35 Cloudy 63 17 59 15 88 88 N 16 26 29.8 1009 10 16.09344 0 0
8:55 pm 20:55 Cloudy 63 17 59 15 88 88 N 15 24 29.8 1009 10 16.09344 0 0
9:15 pm 21:15 Cloudy 63 17 59 15 88 88 N 14 22 29.83 1010 10 16.09344 0 0
9:35 pm 21:35 Cloudy 63 17 57 14 83 83 N 15 24 29.83 1010 10 16.09344 0 0
9:55 pm 21:55 Cloudy 63 17 57 14 83 83 NNE 17 28 29.85 1011 10 16.09344 0 0
10:15 pm 22:15 Cloudy 61 16 57 14 88 88 NNE 14 22 29.85 1011 10 16.09344 0 0
10:35 pm 22:35 Cloudy 61 16 57 14 88 88 NNE 12 19 29.85 1011 10 16.09344 0 0
10:55 pm 22:55 Cloudy 61 16 57 14 88 88 NNE 14 22 29.85 1011 10 16.09344 0 0
11:15 pm 23:15 Cloudy 61 16 57 14 88 88 NNE 13 20 29.88 1012 10 16.09344 0 0
11:35 pm 23:35 Cloudy 61 16 57 14 88 88 NNE 12 19 29.88 1012 10 16.09344 0 0
11:55 pm 23:55 Cloudy 59 15 57 14 94 94 N 10 17 29.91 1013 10 16.09344 0 0

Powered by AerisWeather